TimeCDT,TemperatureF,Dew PointF,Humidity,Sea Level PressureIn,VisibilityMPH,Wind Direction,Wind SpeedMPH,Gust SpeedMPH,PrecipitationIn,Events,Conditions,WindDirDegrees,DateUTC
12:53 AM,73.9,71.1,91,30.00,10.0,ENE,3.5,-,N/A,,Clear,70,2012-08-26 05:53:00
1:53 AM,73.0,71.1,93,30.00,10.0,Calm,Calm,-,N/A,,Clear,0,2012-08-26 06:53:00
2:53 AM,72.0,70.0,93,30.00,8.0,Calm,Calm,-,N/A,,Clear,0,2012-08-26 07:53:00
3:53 AM,72.0,70.0,93,29.99,9.0,Calm,Calm,-,N/A,,Clear,0,2012-08-26 08:53:00
4:53 AM,73.0,71.1,93,30.00,7.0,ENE,3.5,-,N/A,,Clear,70,2012-08-26 09:53:00
5:53 AM,72.0,70.0,93,30.02,5.0,NNE,3.5,-,N/A,,Clear,20,2012-08-26 10:53:00
6:53 AM,73.0,71.1,93,30.03,4.0,Calm,Calm,-,N/A,,Clear,0,2012-08-26 11:53:00
7:53 AM,75.0,73.0,94,30.05,6.0,Variable,4.6,-,N/A,,Clear,0,2012-08-26 12:53:00
8:53 AM,78.1,73.9,87,30.06,10.0,Calm,Calm,-,N/A,,Clear,0,2012-08-26 13:53:00
9:53 AM,82.0,75.0,79,30.08,10.0,Variable,3.5,-,N/A,,Clear,0,2012-08-26 14:53:00
10:53 AM,84.9,75.0,72,30.08,10.0,ESE,4.6,-,N/A,,Partly Cloudy,120,2012-08-26 15:53:00
11:53 AM,87.1,75.0,67,30.08,10.0,East,4.6,-,N/A,,Partly Cloudy,90,2012-08-26 16:53:00
12:53 PM,88.0,73.9,63,30.06,10.0,ENE,6.9,-,N/A,,Scattered Clouds,70,2012-08-26 17:53:00
1:53 PM,89.6,73.4,59,30.04,10.0,Variable,5.8,-,N/A,,Partly Cloudy,0,2012-08-26 18:53:00
2:53 PM,90.0,73.0,57,30.01,10.0,Variable,4.6,-,N/A,,Partly Cloudy,0,2012-08-26 19:53:00
3:53 PM,89.1,71.1,55,29.99,10.0,NE,4.6,-,N/A,,Partly Cloudy,50,2012-08-26 20:53:00
4:53 PM,90.0,71.1,54,29.98,10.0,East,4.6,-,N/A,,Partly Cloudy,80,2012-08-26 21:53:00
5:53 PM,89.1,70.0,53,29.98,10.0,East,4.6,-,N/A,,Clear,80,2012-08-26 22:53:00
6:53 PM,87.1,71.1,59,29.97,10.0,Calm,Calm,-,N/A,,Clear,0,2012-08-26 23:53:00
7:53 PM,81.0,75.0,82,29.98,10.0,Calm,Calm,-,N/A,,Clear,0,2012-08-27 00:53:00
8:53 PM,80.1,75.0,85,30.00,10.0,Calm,Calm,-,N/A,,Clear,0,2012-08-27 01:53:00
9:53 PM,79.0,75.9,90,30.02,10.0,Calm,Calm,-,N/A,,Clear,0,2012-08-27 02:53:00
10:53 PM,78.1,75.0,90,30.02,9.0,Calm,Calm,-,N/A,,Clear,0,2012-08-27 03:53:00
11:53 PM,77.0,75.0,94,30.01,7.0,Calm,Calm,-,N/A,,Clear,0,2012-08-27 04:53:00